Weather History for EGPE - April, 2014

Change the Weather History Date:

Tuesday, April 15, 2014

  Actual Average Record
Temperature  
Mean Temperature 44 °F -  
Max Temperature 60 °F 53 °F 73 °F (2003)
Min Temperature 28 °F 39 °F 26 °F (2002)
Degree Days  
Heating Degree Days 21    
Moisture  
Dew Point 36 °F    
Average Humidity 72    
Maximum Humidity 100    
Minimum Humidity 42    
Precipitation  
Precipitation 0.00 in - - ()
Sea Level Pressure  
Sea Level Pressure 30.30 in    
Wind  
Wind Speed 4 mph ()    
Max Wind Speed 16 mph    
Max Gust Speed -    
Visibility 6.2 miles    
Events      
Averages and records for this station are not official NWS values.
T = Trace of Precipitation, MM = Missing Value Source: Averaged Metar Reports

Daily Weather History Graph

Daily Weather History Graph

Search for Another Location

Airport or City:

Trip Planner

Search our weather history database for the weather conditions in past years. The results will help you decide how hot, cold, wet, or windy it might be!

Date:

Astronomy

Apr. 15, 2014 Rise Set
Actual Time 6:07 AM BST 8:26 PM BST
Civil Twilight 5:24 AM BST 9:09 PM BST
Nautical Twilight 4:30 AM BST 10:04 PM BST
Astronomical Twilight 3:22 AM BST 11:14 PM BST
Moon 8:59 PM BST (4/15) 6:07 AM BST (4/15)
Length of Visible Light 15h 44m
Length of Day
14h 19m
Full, 100% of the Moon is Illuminated
Apr 15
Full
Apr 22
Last Quarter
Apr 29
New
May 7
First Quarter
May 14
Full

Hourly Weather History & Observations

Time (BST) Temp. Windchill Dew Point Humidity Pressure Visibility Wind Dir Wind Speed Gust Speed Precip Events Conditions
12:20 AM 33.8 °F - 30.2 °F 87% 30.39 in 6.2 mi Calm Calm - N/A   Unknown
12:50 AM 33.8 °F - 30.2 °F 87% 30.39 in 6.2 mi Calm Calm - N/A   Unknown
1:20 AM 33.8 °F - 30.2 °F 87% 30.39 in 6.2 mi Calm Calm - N/A   Unknown
1:50 AM 32.0 °F - 30.2 °F 93% 30.39 in 6.2 mi Calm Calm - N/A   Unknown
2:20 AM 32.0 °F - 30.2 °F 93% 30.36 in 6.2 mi Calm Calm - N/A   Unknown
2:50 AM 30.2 °F - 28.4 °F 93% 30.36 in - Calm Calm - N/A   Clear
3:20 AM 30.2 °F - 28.4 °F 93% 30.36 in - Calm Calm - N/A   Clear
3:50 AM 30.2 °F - 28.4 °F 93% 30.36 in - Calm Calm - N/A   Clear
4:20 AM 28.4 °F - 28.4 °F 100% 30.36 in - Calm Calm - N/A   Clear
4:50 AM 30.2 °F - 28.4 °F 93% 30.36 in - Calm Calm - N/A   Clear
5:20 AM 28.4 °F - 26.6 °F 93% 30.36 in - Calm Calm - N/A   Clear
5:50 AM 28.4 °F - 28.4 °F 100% 30.36 in - Calm Calm - N/A   Clear
6:20 AM 30.2 °F - 28.4 °F 93% 30.36 in - Calm Calm - N/A   Clear
6:50 AM 32.0 °F - 30.2 °F 93% 30.36 in - Calm Calm - N/A   Clear
7:20 AM 33.8 °F - 32.0 °F 93% 30.36 in - Variable 2.3 mph - N/A   Clear
7:50 AM 37.4 °F 33.8 °F 35.6 °F 93% 30.36 in - SSW 4.6 mph - N/A   Clear
8:20 AM 39.2 °F 35.9 °F 37.4 °F 93% 30.36 in - SW 4.6 mph - N/A   Clear
8:50 AM 41.0 °F 39.0 °F 37.4 °F 87% 30.36 in - SW 3.5 mph - N/A   Clear
9:20 AM 44.6 °F - 39.2 °F 81% 30.36 in - Calm Calm - N/A   Clear
9:50 AM 48.2 °F - 41.0 °F 76% 30.33 in - Calm Calm - N/A   Clear
10:20 AM 48.2 °F - 41.0 °F 76% 30.33 in 6.2 mi NNW 3.5 mph - N/A   Partly Cloudy
10:50 AM 51.8 °F - 39.2 °F 62% 30.33 in 6.2 mi WSW 8.1 mph - N/A   Partly Cloudy
11:20 AM 53.6 °F - 39.2 °F 58% 30.33 in 6.2 mi SW 16.1 mph - N/A   Partly Cloudy
11:50 AM 55.4 °F - 39.2 °F 54% 30.33 in 6.2 mi SSW 16.1 mph - N/A   Partly Cloudy
12:20 PM 53.6 °F - 39.2 °F 58% 30.30 in 6.2 mi SW 15.0 mph - N/A   Partly Cloudy
12:50 PM 57.2 °F - 39.2 °F 51% 30.30 in 6.2 mi SW 13.8 mph - N/A   Partly Cloudy
1:20 PM 57.2 °F - 39.2 °F 51% 30.30 in - SW 15.0 mph - N/A   Clear
1:50 PM 57.2 °F - 37.4 °F 48% 30.30 in - SW 16.1 mph - N/A   Clear
2:20 PM 59.0 °F - 37.4 °F 45% 30.27 in - SW 16.1 mph - N/A   Clear
2:50 PM 59.0 °F - 37.4 °F 45% 30.27 in - SW 15.0 mph - N/A   Clear
3:20 PM 60.8 °F - 37.4 °F 42% 30.27 in - SW 13.8 mph - N/A   Clear
3:50 PM 60.8 °F - 39.2 °F 45% 30.24 in - SW 12.7 mph - N/A   Clear
4:20 PM 59.0 °F - 39.2 °F 48% 30.24 in - SW 12.7 mph - N/A   Clear
4:50 PM 57.2 °F - 37.4 °F 48% 30.21 in - SW 12.7 mph - N/A   Clear
5:20 PM 59.0 °F - 39.2 °F 48% 30.21 in - WSW 8.1 mph - N/A   Clear
5:50 PM 57.2 °F - 39.2 °F 51% 30.21 in - SW 15.0 mph - N/A   Clear
6:50 PM 55.4 °F - 41.0 °F 58% 30.21 in - SW 11.5 mph - N/A   Clear
7:20 PM 53.6 °F - 41.0 °F 62% 30.21 in - SW 9.2 mph - N/A   Clear
7:50 PM 53.6 °F - 41.0 °F 62% 30.21 in - South 5.8 mph - N/A   Clear
8:20 PM 51.8 °F - 41.0 °F 67% 30.21 in - South 5.8 mph - N/A   Clear
8:50 PM 51.8 °F - 39.2 °F 62% 30.21 in - Calm Calm - N/A   Clear
9:20 PM 50.0 °F - 39.2 °F 66% 30.21 in - SSW 5.8 mph - N/A   Clear
9:50 PM 50.0 °F - 41.0 °F 71% 30.18 in - SSW 6.9 mph - N/A   Clear
10:20 PM 50.0 °F - 41.0 °F 71% 30.18 in - SW 8.1 mph - N/A   Clear
10:50 PM 50.0 °F - 39.2 °F 66% 30.18 in 6.2 mi Variable 2.3 mph - N/A   Unknown
11:20 PM 50.0 °F - 41.0 °F 71% 30.18 in 6.2 mi SW 9.2 mph - N/A   Unknown
11:50 PM 50.0 °F - 41.0 °F 71% 30.18 in 6.2 mi SW 5.8 mph - N/A   Unknown